Regional Weather Roundup
Issued by NWS

Home | Current Version | Previous Version | Text Only | Print | Product List | Glossary Off
Versions: 1 2 3 4 5 6 7 8 9 10 11 12 13 14 15 16 17 18 19 20 21 22 23 24 25 26 27 28 29 30 31 32 33 34 35 36 37 38 39 40 41 42 43 44 45 46 47 48 49 50

000
ASUS43 KLSX 271657
RWRMO

WEATHER SUMMARY FOR MISSOURI
NATIONAL WEATHER SERVICE SPRINGFIELD MO
1200 PM CDT FRI MAY 27 2016

NOTE: "FAIR" INDICATES FEW OR NO CLOUDS BELOW 12,000 FEET WITH NO
       SIGNIFICANT WEATHER AND/OR OBSTRUCTIONS TO VISIBILITY.
       CURRENT SKY AND/OR WEATHER CONDITIONS ARE NOT AVAILABLE FOR
       CHILLICOTHE AND FARMINGTON.

MOZ001>031-035>038-043-044-053-054-271800-
...NORTHERN AND WESTERN MISSOURI...

CITY           SKY/WX    TMP DP  RH WIND       PRES   REMARKS
KANSAS CTY INT CLOUDY    72  63  73 SW9       29.75R
LEE`S SUMMIT   PTSUNNY   74  62  66 SW15      29.75S
ST JOSEPH      MOSUNNY   70  63  78 SW7       29.75R
CHILLICOTHE      N/A     79  66  64 S13G21    29.74R

$$
MOZ066>068-077>081-088>096-101>105-271800-
...SOUTHWEST MISSOURI...

CITY           SKY/WX    TMP DP  RH WIND       PRES   REMARKS
SPRINGFIELD    PTSUNNY   74  66  76 S14       29.80S
JOPLIN         CLOUDY    74  66  76 S13       29.75F
BRANSON        PTSUNNY   73  66  78 S6        29.83S

$$
MOZ032>034-039>042-045>050-055>058-069>072-271800-
...CENTRAL MISSOURI...

CITY           SKY/WX    TMP DP  RH WIND       PRES   REMARKS
COLUMBIA       NOT AVBL
JEFFERSON CITY CLOUDY    77  67  71 S15G22    29.79F
ROLLA          PTSUNNY   73  67  81 S13       29.82S
SEDALIA        CLOUDY    79  69  71 S17       29.78R
WHITEMAN AFB   PTSUNNY   75  70  83 S14G20    29.75S
WARRENSBURG    CLOUDY    73  63  68 S18G25    29.76R

$$
MOZ051-052-059>065-271800-
...EAST CENTRAL MISSOURI...

CITY           SKY/WX    TMP DP  RH WIND       PRES   REMARKS
ST LOUIS INTL  CLOUDY    74  67  78 S14G22    29.86S

$$
MOZ072>076-082>087-097>100-106>115-271800-
...SOUTH CENTRAL AND SOUTHEAST MISSOURI...

CITY           SKY/WX    TMP DP  RH WIND       PRES   REMARKS
CAPE GIRARDEAU PTSUNNY   77  71  82 S13       29.91F
POPLAR BLUFF   CLOUDY    75  70  84 S16       29.89S
WEST PLAINS    CLOUDY    74  66  76 S13G26    29.87R

$$



USA.gov is the U.S. government's official web portal to all federal, state and local government web resources and services.